Weather History for CWLP - March, 2013

Change the Weather History Date:

Friday, March 8, 2013

  Actual Average Record
Temperature  
Mean Temperature 46 °F -  
Max Temperature 50 °F - - ()
Min Temperature 41 °F - - ()
Degree Days  
Heating Degree Days 20    
Moisture  
Dew Point 39 °F    
Average Humidity 83    
Maximum Humidity 89    
Minimum Humidity 69    
Precipitation  
Precipitation 0.00 in - - ()
Sea Level Pressure  
Sea Level Pressure 30.16 in    
Wind  
Wind Speed 4 mph ()    
Max Wind Speed 10 mph    
Max Gust Speed -    
T = Trace of Precipitation, MM = Missing Value Source: Averaged Metar Reports

Daily Weather History Graph

Daily Weather History Graph

Search for Another Location

Airport or City:

Trip Planner

Search our weather history database for the weather conditions in past years. The results will help you decide how hot, cold, wet, or windy it might be!

Date:

Astronomy

Mar. 08, 2013 Rise Set
Actual Time 6:58 AM PST 6:24 PM PST
Civil Twilight 6:26 AM PST 6:57 PM PST
Nautical Twilight 5:48 AM PST 7:35 PM PST
Astronomical Twilight 5:09 AM PST 8:14 PM PST
Moon 5:05 AM PST (3/8) 3:11 PM PST (3/8)
Length of Visible Light 12h 31m
Length of Day
11h 25m
Waning Crescent, 11% of the Moon is Illuminated
Mar 8
Waning Crescent
Mar 11
New
Mar 19
First Quarter
Mar 27
Full
Apr 2
Last Quarter

Hourly Weather History & Observations

Time (PST) Temp. Windchill Dew Point Humidity Pressure Visibility Wind Dir Wind Speed Gust Speed Precip Events Conditions
12:00 AM 43.2 °F 39.7 °F 40.1 °F 89% 30.12 in - WNW 5.8 mph - N/A   Unknown
1:00 AM 43.0 °F - 39.2 °F 86% 30.13 in - NNW 2.3 mph - N/A   Unknown
2:00 AM 42.6 °F - 38.5 °F 85% 30.13 in - Calm Calm - N/A   Unknown
3:00 AM 42.8 °F - 38.8 °F 86% 30.13 in - North 2.3 mph - N/A   Unknown
4:00 AM 43 °F - 38 °F 78% 30.12 in - North 3.5 mph - -  
4:00 AM 43.0 °F 41.3 °F 38.5 °F 84% 30.12 in - North 3.5 mph - N/A   Unknown
5:00 AM 42.4 °F - 38.1 °F 85% 30.12 in - North 1.2 mph - N/A   Unknown
6:00 AM 42.3 °F 39.4 °F 38.8 °F 88% 30.12 in - SE 4.6 mph - N/A   Unknown
7:00 AM 42.1 °F 40.2 °F 39.0 °F 89% 30.12 in - SE 3.5 mph - N/A   Unknown
8:00 AM 41.7 °F 38.0 °F 38.3 °F 88% 30.13 in - ENE 5.8 mph - N/A   Unknown
9:00 AM 42.1 °F 37.1 °F 38.8 °F 88% 30.14 in - East 8.1 mph - N/A   Unknown
10:00 AM 42 °F - 39 °F 87% 30.16 in - East 3.5 mph - -  
10:00 AM 42.4 °F 40.7 °F 39.4 °F 89% 30.16 in - East 3.5 mph - N/A   Unknown
11:00 AM 46.2 °F - 41.0 °F 82% 30.16 in - SE 2.3 mph - N/A   Unknown
12:00 PM 46.9 °F - 40.3 °F 78% 30.16 in - East 1.2 mph - N/A   Unknown
1:00 PM 45.3 °F - 39.2 °F 79% 30.17 in - NNW 1.2 mph - N/A   Unknown
2:00 PM 46.9 °F - 39.6 °F 76% 30.17 in - WNW 5.8 mph - N/A   Unknown
3:00 PM 49.8 °F - 42.1 °F 75% 30.17 in - WNW 9.2 mph - N/A   Unknown
4:00 PM 47 °F - 40 °F 69% 30.17 in - WNW 10.4 mph - -  
4:00 PM 47.5 °F - 40.1 °F 76% 30.17 in - WNW 10.4 mph - N/A   Unknown
5:00 PM 46.2 °F 42.2 °F 39.7 °F 78% 30.18 in - NW 8.1 mph - N/A   Unknown
6:00 PM 44.1 °F 39.5 °F 39.4 °F 84% 30.19 in - NW 8.1 mph - N/A   Unknown
7:00 PM 43.7 °F 38.6 °F 39.4 °F 85% 30.21 in - WNW 9.2 mph - N/A   Unknown
8:00 PM 43.7 °F 39.1 °F 39.4 °F 85% 30.22 in - WNW 8.1 mph - N/A   Unknown
9:00 PM 43.3 °F 38.1 °F 39.4 °F 86% 30.23 in - West 9.2 mph - N/A   Unknown
10:00 PM 43 °F - 40 °F 83% 30.23 in - West 5.8 mph - -  
10:00 PM 42.8 °F 39.3 °F 39.6 °F 88% 30.23 in - West 5.8 mph - N/A   Unknown
11:00 PM 42.6 °F 38.4 °F 39.0 °F 87% 30.24 in - West 6.9 mph - N/A   Unknown